Theta_e
348 349 350 350 351 353 354 354 354 354 355 355 354 354 355 355 358 359 361 360 362 361 360 357 354 356 357 353 353 355 356 357 359 361 360 361 362 361 363 361 363 364 364 363 362 361 361 360 361 362 362 362 361 359 359 360 362 363 360 365 354 352 346 347 348 348 347 346 350 346 350 351 351 351 351 352 354 357 357 359 360 360 362 366 369
348 349 350 350 350 352 353 353 354 352 354 354 354 354 355 355 356 358 362 361 361 361 359 356 357 355 353 353 352 353 355 355 357 359 359 359 362 364 363 363 364 364 364 364 364 361 361 360 360 362 361 361 362 362 362 364 366 363 357 355 354 347 346 346 343 345 340 339 340 342 347 351 350 350 350 350 351 354 354 359 361 361 363 364 365
346 347 349 349 350 351 351 352 353 353 353 354 356 355 356 355 357 359 360 360 360 361 360 357 358 359 357 356 354 355 358 360 358 359 360 360 361 362 364 364 364 363 363 364 362 362 360 360 360 362 362 361 361 362 363 361 361 358 361 353 346 344 346 348 349 348 340 344 346 341 336 339 349 347 348 348 348 350 353 355 358 363 363 364 363
343 345 346 347 349 350 351 351 352 352 353 354 354 355 356 358 358 359 360 362 362 362 362 360 360 362 362 362 362 359 359 361 362 361 362 361 360 362 365 365 364 362 362 361 362 362 362 362 360 361 361 364 361 360 360 359 361 359 355 354 354 347 342 342 347 351 346 340 335 336 340 338 334 342 344 347 347 347 348 351 353 356 360 363 364
344 344 345 346 347 349 350 352 352 351 351 353 354 354 355 356 359 361 361 361 363 364 363 364 364 365 365 364 366 363 361 361 359 356 359 361 359 362 361 364 363 362 363 363 363 363 365 364 362 361 360 362 361 359 359 356 358 356 357 356 355 345 341 342 347 347 345 346 341 337 335 334 338 338 339 342 346 344 348 348 351 348 354 357 358
345 344 344 345 346 348 350 351 351 351 351 353 354 355 356 356 360 363 362 362 362 364 366 364 363 362 360 358 355 354 353 354 352 351 352 354 355 359 362 363 363 363 363 362 363 363 365 365 364 361 361 360 360 359 360 360 360 356 357 355 352 352 351 347 343 348 345 348 348 343 342 335 337 339 338 334 349 345 343 346 348 352 353 353 358
345 345 344 343 345 347 349 350 351 350 351 352 353 354 355 357 360 362 364 364 363 365 367 365 362 362 360 356 355 354 353 353 356 353 352 354 358 359 362 365 366 364 364 364 363 364 364 365 365 363 362 362 364 363 360 357 355 354 356 355 352 352 352 347 347 342 345 345 343 342 343 343 341 337 337 339 336 343 345 343 345 350 351 350 352
344 344 345 344 345 346 347 348 349 349 351 351 352 353 355 358 359 362 365 365 364 366 367 366 363 362 362 359 356 356 354 353 357 357 355 358 358 361 362 362 366 365 364 365 364 364 364 365 366 364 362 363 361 361 359 358 356 359 362 361 359 357 357 350 345 342 340 342 345 342 342 342 343 343 343 339 336 334 335 342 345 345 346 347 350
344 344 345 345 345 346 347 348 349 350 351 351 352 353 354 357 359 363 364 366 364 366 367 368 366 364 363 360 359 359 358 354 359 360 355 358 357 359 362 362 364 367 365 364 364 364 364 363 364 363 361 361 364 361 360 358 358 359 362 359 357 357 354 352 350 348 346 341 344 346 343 341 341 343 343 342 338 335 333 335 337 342 345 346 349
344 342 345 345 346 346 347 350 350 350 350 352 353 353 354 357 359 362 364 366 365 367 368 369 368 367 364 363 360 360 360 359 357 356 358 358 357 359 363 362 360 362 364 364 365 364 364 365 361 360 361 358 359 361 360 361 360 361 360 358 358 356 355 352 352 350 347 346 343 343 344 344 343 340 340 340 340 341 334 335 335 336 336 340 346
343 345 342 346 349 350 350 349 350 350 351 351 352 353 354 354 359 362 365 365 366 367 368 369 368 366 364 363 363 362 361 360 357 358 358 359 357 355 358 360 359 359 359 365 362 362 363 363 360 359 359 361 360 360 361 358 357 358 356 357 358 358 353 355 352 353 351 350 348 345 342 341 340 338 341 340 339 338 336 335 337 337 337 337 342
343 343 346 347 349 349 346 347 350 350 351 351 351 353 354 355 358 363 365 367 366 366 368 367 366 366 365 365 364 363 362 358 358 358 356 357 356 354 356 358 360 357 360 358 361 360 362 361 363 359 359 359 359 361 361 359 358 357 355 356 358 359 358 356 353 351 350 349 349 346 343 343 342 341 341 341 341 341 340 339 336 338 337 338 340
342 345 344 344 344 344 347 349 350 350 350 351 350 352 354 355 358 362 364 367 367 366 367 367 367 366 366 365 366 366 363 361 360 357 357 356 355 354 356 356 358 357 357 356 357 358 361 361 361 358 358 360 362 360 363 363 364 361 358 357 358 359 356 357 352 352 350 347 346 346 345 344 343 343 343 342 341 341 341 339 340 342 337 337 341
342 343 342 344 346 346 344 348 349 350 350 349 350 352 354 354 359 362 364 368 368 367 367 366 367 367 368 367 365 366 365 362 360 358 356 356 355 355 354 354 354 354 355 357 357 358 358 360 361 361 363 363 365 366 363 363 363 360 360 358 357 360 359 358 356 355 353 351 350 347 347 345 344 345 345 343 341 341 339 339 341 341 340 338 341
342 344 344 344 345 348 348 349 350 350 349 351 351 353 354 355 358 363 365 367 368 367 367 366 366 367 367 366 366 364 363 361 360 361 360 357 354 354 355 353 353 356 355 360 361 360 360 361 360 361 361 365 366 364 357 360 363 362 360 359 359 358 358 356 355 354 350 350 350 349 348 347 346 345 345 345 345 343 342 342 341 338 337 339 338
342 343 344 346 347 348 347 349 349 351 353 352 351 353 354 356 359 362 366 368 368 368 366 366 366 366 368 368 366 365 364 362 362 362 362 358 357 354 355 356 355 357 361 361 359 360 359 359 361 360 362 363 366 365 362 359 360 358 357 357 357 354 356 355 355 354 352 352 351 352 351 349 350 348 347 346 346 346 345 346 346 345 339 337 340
342 342 344 346 347 349 349 351 349 350 352 352 353 353 356 357 357 362 366 369 368 368 366 366 367 366 366 366 365 365 363 360 358 360 359 361 360 357 353 353 354 356 356 360 359 362 361 360 360 358 362 364 366 365 362 363 362 359 356 357 356 355 358 357 357 357 358 356 354 352 351 350 350 353 351 347 349 351 349 349 349 345 346 341 338
343 345 347 347 348 350 350 350 350 351 352 353 355 355 358 359 361 363 365 367 368 368 366 364 365 364 365 365 365 364 361 360 359 357 359 360 359 359 357 353 352 354 356 356 358 358 361 362 360 359 359 361 363 363 365 361 362 363 359 362 360 362 361 360 360 360 360 359 357 354 352 351 350 349 351 352 352 353 352 353 357 351 352 346 344
343 344 346 347 348 350 351 349 349 351 353 353 355 356 359 361 363 366 366 368 368 368 367 366 366 363 362 363 363 363 362 361 361 361 360 359 357 357 356 355 353 355 355 359 360 357 359 360 363 360 362 362 364 364 365 365 362 360 359 358 358 360 360 361 362 360 359 358 360 357 356 355 357 356 354 352 353 353 354 359 360 354 350 348 347
343 343 345 347 349 350 349 350 349 349 350 352 355 358 361 364 365 367 369 370 368 367 367 365 366 365 361 363 363 365 365 361 362 361 358 358 357 355 355 355 354 353 354 356 356 357 356 357 356 358 358 363 363 364 363 363 362 361 360 356 357 360 358 359 359 360 360 360 361 358 358 358 358 358 355 354 354 356 357 356 357 357 354 352 352
344 343 346 347 348 347 348 350 350 351 352 354 357 358 358 363 364 366 365 366 366 366 366 366 366 366 365 362 359 362 361 361 360 359 357 358 358 359 356 356 357 355 356 354 355 356 357 356 355 356 359 364 366 364 361 363 362 361 361 361 360 360 359 357 357 356 356 358 359 359 359 359 360 356 355 353 352 354 357 358 358 356 353 355 355
345 344 345 346 348 347 346 348 350 354 352 353 353 357 357 361 363 365 366 367 366 363 365 366 367 367 365 364 362 362 363 361 358 359 357 356 357 358 358 359 357 358 358 356 356 355 356 356 355 357 360 363 367 368 364 362 361 361 360 359 359 360 360 359 358 357 359 360 359 358 357 354 356 356 355 353 352 353 356 356 357 357 355 355 357
345 345 346 347 349 348 347 351 354 353 352 353 354 356 357 360 362 364 366 365 365 364 366 368 367 367 365 364 363 363 364 363 358 357 355 355 357 359 360 358 358 359 361 360 358 358 360 362 362 363 365 365 366 366 365 363 362 362 360 357 357 357 357 356 355 356 358 359 357 357 357 359 358 355 356 356 357 356 355 354 355 356 354 356 356
346 347 347 349 349 350 352 352 353 354 355 353 353 357 356 359 362 363 364 365 364 367 367 368 366 364 364 364 364 364 364 364 358 356 359 359 359 359 360 360 361 363 362 367 364 361 364 367 365 365 365 365 365 365 364 365 363 361 359 358 359 358 356 354 355 355 355 356 357 357 356 357 357 356 356 356 358 356 353 355 355 356 358 356 356
346 346 348 350 349 349 353 354 356 356 357 356 354 356 357 360 363 361 361 362 365 367 366 365 363 363 364 363 363 364 364 364 359 357 361 363 361 360 364 365 365 365 367 366 364 364 364 366 364 364 364 365 364 365 365 364 362 361 360 357 358 358 357 357 357 358 356 356 356 355 355 357 357 354 354 354 355 355 355 355 355 357 355 354 354
350 348 349 349 350 352 356 357 358 357 356 356 356 356 355 357 363 362 360 360 363 363 364 362 362 362 362 361 361 361 362 366 365 362 364 366 366 365 364 365 365 366 367 366 365 365 362 362 365 364 364 365 367 366 365 363 362 362 360 358 357 357 356 356 357 356 357 358 356 356 355 355 355 353 352 353 355 354 355 355 354 355 357 357 358
350 350 350 350 351 352 355 356 356 357 356 356 360 358 357 359 361 363 363 361 361 361 359 355 353 359 358 358 359 361 363 366 368 367 368 369 369 369 367 366 367 367 368 367 365 365 365 365 366 366 365 365 365 364 364 365 363 363 361 358 358 357 357 357 358 357 355 355 355 354 355 353 353 352 352 352 353 354 351 355 354 354 356 354 350
349 350 351 350 352 352 353 355 356 356 357 358 357 358 359 360 359 360 359 360 359 359 356 353 357 358 356 353 355 359 363 365 365 366 367 368 367 367 368 368 368 367 366 365 364 365 365 366 365 363 362 363 362 362 362 363 362 361 359 358 358 357 356 356 355 355 355 355 355 355 355 354 354 354 353 353 353 354 353 355 355 355 354 353 352
348 350 350 351 351 353 353 354 357 357 358 360 360 360 361 363 363 360 359 359 360 358 355 354 358 358 359 360 359 360 364 365 365 363 364 365 364 365 366 367 366 366 364 365 365 365 363 362 361 361 361 361 359 359 360 359 359 360 359 357 357 356 355 354 354 356 356 357 357 356 356 356 357 355 355 354 354 353 354 354 356 356 354 352 351
348 350 353 353 352 352 353 356 358 358 359 360 360 361 361 359 358 360 360 361 360 360 359 360 358 358 358 357 359 361 364 365 365 364 364 364 366 365 364 365 365 364 365 364 365 363 362 361 360 359 360 359 358 359 357 354 354 360 360 360 358 359 358 358 358 358 358 359 358 358 358 356 355 354 354 353 353 353 353 353 356 356 355 353 352
348 350 352 353 354 354 352 351 353 355 356 357 360 362 362 361 361 360 360 361 361 359 359 359 358 359 355 354 357 360 361 362 362 362 363 364 364 364 363 362 362 362 363 363 361 361 360 360 358 357 357 357 357 358 355 347 348 351 358 360 358 359 360 358 358 357 357 359 359 360 361 359 356 354 354 353 353 352 353 352 352 352 351 351 351
348 349 350 352 353 355 354 352 352 354 355 357 358 360 361 361 363 361 361 362 359 359 358 360 362 362 361 358 358 359 360 361 361 360 362 363 363 362 361 361 361 361 362 361 358 358 358 358 357 358 358 358 359 352 341 344 344 345 349 357 357 356 357 356 356 356 357 358 358 359 360 360 359 358 358 358 356 355 353 353 353 352 351 351 351
348 348 349 349 351 352 354 355 356 356 356 358 360 360 360 361 362 363 363 361 360 359 359 358 360 362 362 360 360 360 361 361 360 361 361 361 361 360 359 360 360 360 359 358 358 357 357 357 357 356 355 356 356 342 339 341 340 340 342 352 357 356 356 356 356 357 358 358 358 357 357 358 358 355 356 358 359 358 354 352 352 350 351 351 348
349 349 350 350 351 351 353 353 354 356 356 358 360 359 359 362 364 365 363 361 360 359 360 359 359 360 362 362 362 361 360 360 360 361 361 360 359 358 359 360 359 359 358 357 356 356 357 357 356 356 357 355 356 345 337 338 338 337 339 347 358 357 357 357 358 358 358 358 358 357 357 356 358 358 358 357 356 356 355 355 355 355 354 353 351
347 351 352 352 351 352 352 352 352 352 354 357 359 361 363 364 363 362 361 360 359 359 358 359 359 359 359 360 362 361 359 360 360 359 358 359 359 358 358 358 357 356 356 356 355 355 356 356 356 355 354 354 354 336 336 337 335 334 337 348 359 358 357 356 354 353 353 353 353 353 353 352 353 353 354 352 353 352 352 352 353 351 351 351 351
346 349 353 353 354 353 353 353 354 353 353 354 355 357 358 359 362 361 359 358 358 358 358 358 358 358 359 361 361 360 360 359 358 358 357 356 356 357 356 356 356 357 357 357 357 358 357 357 356 355 354 354 348 329 332 332 331 333 340 355 355 353 351 351 351 351 351 353 353 353 352 352 352 352 346 340 344 351 352 351 350 352 352 352 353
346 350 352 355 356 354 354 353 353 354 354 354 355 354 354 354 355 355 357 357 358 357 358 359 358 359 359 361 362 361 360 358 358 357 356 356 355 356 356 357 357 356 355 355 355 357 358 356 356 355 355 354 349 331 324 326 329 331 342 352 350 348 348 348 349 349 349 350 351 351 349 350 349 350 338 327 331 343 351 349 349 348 346 346 345
346 351 351 353 353 355 354 352 351 353 354 355 356 356 356 355 356 356 357 356 357 355 358 358 358 357 358 361 362 361 359 358 355 355 355 356 356 357 358 358 355 354 354 355 356 356 357 357 357 357 358 354 348 335 324 323 325 329 346 350 350 347 347 347 348 348 349 348 348 343 345 347 347 347 328 325 327 342 347 347 346 343 341 341 340
346 345 350 351 352 353 354 356 353 351 353 354 355 355 354 354 354 355 356 355 355 357 357 358 359 360 360 360 358 358 358 357 356 356 357 356 357 356 357 358 357 357 356 356 354 355 357 359 358 358 354 353 349 338 320 321 323 327 343 352 349 349 347 347 346 345 347 346 346 346 346 345 341 335 322 323 324 335 343 344 342 340 338 339 340
345 347 350 352 355 354 353 353 352 353 354 355 355 354 353 353 354 355 354 355 356 357 360 361 362 361 360 359 360 359 358 357 356 357 358 357 357 358 357 357 357 357 355 356 355 357 357 357 360 359 354 354 349 345 333 317 319 323 329 355 351 346 345 345 346 343 342 344 346 346 349 331 326 323 320 317 318 320 335 343 343 340 339 339 340
346 349 348 350 351 351 350 350 353 353 354 354 354 353 352 354 355 355 355 356 358 360 360 359 359 358 358 358 360 359 358 359 358 357 358 358 358 357 357 357 356 356 356 357 356 356 355 354 355 355 354 353 351 347 335 318 317 318 321 334 349 348 346 344 344 342 342 340 341 342 345 331 320 319 316 312 312 315 322 337 341 340 335 331 333
351 349 349 349 350 351 352 351 352 352 351 349 347 349 348 352 353 352 355 357 359 359 358 359 359 358 358 358 359 359 358 357 358 358 357 357 359 359 358 357 356 359 358 355 355 353 352 352 353 354 354 351 348 344 344 324 318 316 318 325 347 348 347 347 342 343 341 342 344 346 346 331 317 315 313 309 309 314 316 335 330 316 318 322 335
345 348 349 348 350 351 350 350 349 349 347 344 343 341 345 345 349 353 355 356 357 357 358 358 358 357 357 357 358 358 357 357 357 358 358 357 358 358 359 359 358 356 353 352 351 351 351 351 350 352 351 350 348 343 337 339 321 315 314 319 320 336 326 348 342 341 341 342 345 345 341 328 315 309 309 311 314 316 327 324 311 316 318 319 329
344 347 348 352 351 350 351 350 349 348 345 342 340 339 338 340 349 355 355 355 356 356 357 357 356 356 356 357 357 358 358 359 357 358 357 357 359 359 358 355 354 352 351 350 350 350 349 349 349 349 349 349 348 344 336 334 331 317 314 313 317 317 321 337 345 343 343 344 342 341 335 313 311 309 312 316 319 325 325 312 313 316 321 327 338
343 349 352 353 353 352 349 346 345 345 343 340 340 340 341 340 347 353 355 357 357 356 356 355 355 356 356 356 356 357 357 357 357 356 356 355 356 355 352 354 354 352 351 349 349 349 349 349 348 347 347 346 346 345 344 337 331 326 318 316 318 321 322 320 344 344 341 341 326 314 311 314 318 315 314 316 324 325 318 319 317 320 332 338 339
345 348 350 350 352 352 348 344 344 347 344 343 344 344 340 343 351 352 353 357 355 354 355 355 355 354 353 354 354 354 355 355 355 355 354 353 352 350 349 352 350 349 350 349 349 350 349 351 351 351 347 345 344 344 345 345 341 339 332 321 319 324 334 334 336 336 331 325 321 320 320 321 327 329 341 340 338 337 330 329 333 337 338 336 336
344 346 347 348 351 350 348 345 342 345 350 351 350 347 348 351 353 353 353 354 355 354 353 354 353 352 353 354 353 352 351 352 352 350 349 349 349 348 349 349 348 347 347 348 349 348 347 347 348 348 345 345 343 341 342 342 343 343 342 342 345 341 338 338 340 342 339 339 339 338 335 328 328 330 334 336 335 337 335 336 336 336 337 336 335
343 346 347 348 350 351 349 347 344 343 348 351 352 351 352 352 351 352 354 355 354 353 351 352 351 353 353 353 351 351 349 345 341 341 342 345 348 349 347 344 341 342 347 347 347 346 345 346 346 346 344 341 339 338 335 336 336 338 341 342 342 341 342 340 339 340 341 341 341 339 336 345 344 342 339 338 337 335 332 329 329 329 328 328 328
343 346 347 347 349 350 349 346 345 344 346 350 350 350 351 351 351 353 355 354 352 351 352 352 353 354 354 353 350 348 346 343 339 332 324 320 320 327 341 338 328 325 327 333 344 343 344 346 347 345 345 340 339 339 333 315 323 308 322 340 339 338 339 339 334 321 338 340 339 337 336 335 335 335 333 334 332 330 328 325 324 324 325 324 323
343 346 348 349 349 349 348 346 345 344 347 349 350 351 352 351 353 355 355 354 353 352 354 353 353 352 352 349 347 346 346 344 340 332 327 322 315 305 309 325 326 316 309 303 312 331 334 341 337 330 329 336 335 329 308 301 299 300 302 304 306 303 304 323 322 312 330 337 334 333 332 331 331 330 327 324 323 323 323 322 321 320 320 319 319
341 344 346 346 346 345 345 344 345 345 348 349 350 353 354 353 355 355 355 355 354 353 354 353 353 350 346 345 344 345 346 345 342 337 334 330 326 318 301 302 309 310 304 300 299 301 305 314 334 331 321 308 308 303 299 299 300 298 298 298 299 300 301 301 303 329 335 332 330 329 328 328 327 326 323 320 320 318 317 317 317 317 316 316 316
Wind_Speed
12 14 15 16 16 14 14 12 12 13 13 13 13 13 13 12 11 11 11 11 10 10 10 9 9 8 8 8 8 8 8 7 7 7 7 7 6 6 5 6 6 6 6 6 6 6 6 5 5 6 5 5 5 5 5 4 2 4 3 3 6 5 6 6 5 4 4 3 2 3 2 2 3 3 4 4 4 3 3 4 4 4 3 4 4
13 13 15 16 15 16 14 12 13 14 13 13 14 13 13 14 13 11 10 11 11 11 10 10 9 8 8 8 8 7 7 8 7 7 7 6 6 6 6 6 6 6 6 6 6 6 6 6 6 6 5 5 5 4 4 4 4 5 5 4 6 6 5 6 2 3 6 5 3 3 3 4 1 4 5 4 4 4 4 3 4 3 4 5 5
12 14 15 15 16 17 14 13 13 14 14 14 14 14 14 13 12 11 10 10 10 10 9 9 9 8 8 7 8 6 6 7 7 6 7 7 7 7 6 6 6 6 7 7 6 7 7 6 6 5 6 5 5 5 6 5 5 6 5 6 5 7 6 5 3 5 5 2 2 3 4 4 5 5 3 4 3 2 3 4 4 5 7 7 5
14 15 16 16 16 15 15 14 13 13 13 14 14 15 13 12 12 12 11 11 10 10 9 9 9 9 8 7 7 7 5 6 6 6 6 7 7 7 7 6 7 7 7 8 7 6 7 6 6 5 5 5 5 4 4 6 5 5 6 6 5 6 7 7 6 4 6 3 5 5 3 3 5 3 4 3 3 4 4 3 4 6 6 4 5
14 15 16 16 17 17 16 14 14 14 13 13 14 13 11 14 13 13 11 11 10 10 11 9 8 8 7 7 5 6 6 5 6 7 7 7 7 7 7 7 7 7 7 7 7 6 6 6 6 5 5 5 6 5 5 6 6 6 4 4 6 7 6 6 4 6 7 4 6 3 5 5 4 4 4 3 3 4 4 4 2 4 3 4 4
15 16 16 17 17 16 16 16 15 14 14 13 13 14 13 13 14 13 11 11 11 12 12 10 9 9 9 8 8 8 8 8 8 8 7 7 8 6 7 7 7 7 7 7 7 6 7 6 6 6 6 6 5 5 5 4 4 6 6 6 7 7 6 5 6 5 6 3 4 6 5 6 6 6 5 5 2 5 5 4 3 3 4 4 4
16 15 16 17 17 17 17 16 16 15 14 13 13 13 14 12 13 14 11 10 11 11 13 10 10 9 11 10 10 9 8 7 7 7 6 6 6 6 5 6 6 6 7 7 6 6 6 6 6 6 6 6 5 5 5 6 6 6 4 4 5 5 5 6 6 6 6 7 7 8 6 6 8 6 6 6 6 3 4 6 4 3 4 4 3
15 17 17 16 17 17 18 18 16 15 15 14 13 13 14 13 13 13 11 10 10 10 12 11 10 10 10 10 9 9 9 7 7 7 6 4 5 5 5 5 6 6 5 6 6 7 6 6 6 6 6 6 5 6 6 6 4 2 0 4 4 3 4 6 7 8 7 5 7 8 6 6 7 8 8 7 7 7 7 5 5 6 5 6 5
17 13 15 16 17 18 17 17 17 17 15 14 14 13 13 14 13 13 12 11 11 12 12 12 11 10 10 10 9 8 8 7 6 6 6 5 6 5 5 4 5 5 5 5 6 6 6 6 6 6 6 6 6 6 6 6 5 5 3 4 5 5 6 6 5 6 8 7 6 6 7 8 7 7 7 7 7 8 8 8 8 6 7 6 5
16 20 17 18 16 16 17 17 17 16 15 15 14 13 13 13 13 14 13 11 11 13 13 13 13 11 11 10 11 9 8 7 6 6 6 5 6 6 4 4 4 5 6 6 5 6 6 6 6 7 7 7 7 7 7 6 6 5 5 6 6 6 5 6 6 7 7 8 9 7 5 6 8 8 8 8 9 9 9 9 9 10 8 7 6
18 16 17 17 15 13 15 18 17 17 15 15 14 13 13 13 14 15 14 12 12 13 14 14 12 11 10 11 11 11 10 8 7 6 6 5 5 6 7 6 5 4 4 5 6 6 6 6 7 7 7 6 6 6 6 7 6 7 7 7 6 6 6 7 7 7 7 7 8 8 9 8 8 9 9 9 9 9 9 10 9 9 10 10 7
15 17 16 16 14 15 16 18 18 17 15 15 14 13 13 13 14 15 15 13 13 13 13 13 11 12 11 11 12 11 10 8 8 7 7 6 7 6 5 4 4 5 5 4 4 6 6 6 6 6 6 6 6 6 6 6 6 6 5 5 5 6 7 7 7 8 10 9 9 9 10 10 10 11 9 8 9 9 8 10 10 10 11 10 8
18 16 14 15 17 19 19 18 17 16 14 15 15 14 13 14 15 15 15 14 13 13 13 13 12 12 11 11 11 10 10 9 8 7 7 6 7 7 6 6 5 5 5 5 6 6 5 5 5 5 5 6 6 5 5 5 5 5 5 6 6 6 6 7 8 9 10 10 9 9 9 10 11 10 10 10 10 10 9 10 10 10 12 11 10
17 18 20 19 17 15 17 17 14 14 17 16 15 14 13 13 14 15 16 15 13 13 13 13 13 12 11 11 10 9 9 9 8 7 7 7 6 6 7 7 7 7 7 6 5 5 5 5 5 6 5 5 5 6 6 6 5 6 6 6 7 7 6 8 9 10 10 11 10 10 11 11 10 10 11 11 11 10 11 11 10 9 11 11 9
15 15 16 15 17 18 16 15 13 15 16 16 15 14 13 13 14 15 15 14 13 13 12 13 12 12 11 10 9 9 9 8 8 7 6 7 7 8 7 6 5 6 6 5 4 4 5 4 5 5 5 6 6 6 6 6 6 6 7 8 7 6 6 7 8 10 10 11 12 11 10 11 11 11 11 11 10 11 11 11 11 11 11 11 11
14 15 16 17 17 18 17 17 16 15 17 14 15 14 14 13 14 15 14 14 14 14 13 13 13 11 11 11 11 9 7 7 6 6 6 6 6 6 6 6 6 4 4 4 6 6 6 6 6 6 5 6 6 7 7 6 6 7 7 7 8 7 7 9 10 11 11 12 12 11 11 11 10 10 11 12 11 11 10 11 10 10 11 12 10
12 14 15 16 15 15 14 15 16 16 14 14 14 14 14 13 13 13 13 13 14 15 14 13 12 11 12 12 11 10 10 10 8 9 9 8 6 6 6 7 8 7 7 6 7 6 6 6 5 5 5 6 5 6 7 6 5 5 6 6 8 8 6 6 7 9 9 8 8 9 10 12 11 10 11 11 11 10 11 12 10 10 10 12 12
10 12 13 15 15 15 14 14 15 14 15 15 14 14 14 13 13 14 14 15 14 14 13 12 12 12 11 12 12 11 10 10 9 8 8 7 7 6 6 7 8 8 7 7 6 6 6 6 6 5 5 5 6 3 3 4 2 0 3 3 2 3 4 5 5 6 6 6 7 9 10 8 8 9 11 9 10 10 7 5 4 3 3 7 9
9 11 12 13 13 15 14 15 15 13 13 14 15 14 13 13 13 14 16 15 15 12 11 10 10 9 9 10 11 11 9 8 7 7 7 7 7 7 7 7 7 8 7 6 6 7 7 6 5 6 6 6 5 5 5 3 3 3 3 4 4 4 5 6 7 8 8 7 7 8 7 8 7 8 8 8 7 8 6 4 2 1 3 5 5
7 9 11 13 14 14 14 13 14 13 13 12 14 12 13 12 12 12 11 10 11 11 10 10 10 9 9 9 9 9 9 8 7 7 8 8 8 8 8 8 8 7 7 7 8 8 8 7 7 7 7 5 6 5 5 5 4 4 4 5 6 7 8 7 8 8 6 7 7 8 8 8 8 8 9 9 9 8 6 4 3 2 4 6 4
5 7 8 11 13 14 14 13 11 10 9 8 10 12 11 10 10 11 12 12 12 11 10 9 9 9 9 10 9 9 10 8 9 9 8 8 7 7 8 8 7 7 7 8 9 9 8 8 8 8 5 6 6 5 4 5 5 5 5 6 7 6 7 8 8 9 9 9 8 9 8 8 7 8 8 8 8 7 5 4 4 5 6 7 6
3 6 8 10 11 13 13 13 11 10 10 8 8 8 9 10 9 10 11 11 12 12 11 11 10 10 11 10 9 8 8 8 9 9 9 9 8 8 8 7 8 7 7 9 9 8 8 8 9 8 8 6 6 6 6 6 6 6 7 6 7 8 8 8 8 9 8 7 8 9 9 10 9 10 8 9 8 8 7 7 7 7 7 7 7
0 4 5 7 9 10 11 13 12 11 9 7 6 7 8 8 9 10 11 12 11 10 9 9 9 9 10 9 9 8 8 9 9 8 9 9 9 9 8 9 8 7 8 8 8 7 6 6 5 4 4 5 6 5 5 5 6 6 7 7 7 7 7 8 9 9 9 8 9 9 9 8 6 8 8 8 8 9 9 9 8 8 9 8 7
3 1 2 4 6 8 9 11 11 10 10 9 7 6 8 7 7 6 6 7 8 7 8 9 9 9 10 9 9 8 8 8 9 8 9 8 8 8 8 8 7 6 5 3 3 4 4 4 5 6 6 6 5 5 5 5 6 6 7 7 7 7 8 8 8 8 8 7 8 8 9 8 8 9 9 9 8 9 10 10 9 8 7 8 8
2 2 3 4 5 7 7 9 9 9 9 8 7 6 5 6 6 8 7 8 6 5 6 7 6 6 7 8 8 8 8 9 9 7 8 7 7 6 4 5 5 5 4 5 5 5 5 6 6 7 7 7 6 6 6 6 6 6 7 7 6 7 7 8 8 7 7 7 8 9 9 8 8 9 8 8 7 9 9 10 10 8 9 9 8
4 1 4 6 6 6 7 8 8 8 9 8 8 9 9 9 8 9 9 7 5 4 4 4 5 5 1 3 5 6 7 8 6 5 5 6 5 5 4 5 5 5 5 5 6 5 5 6 6 6 7 7 6 6 5 5 6 6 6 7 8 8 8 8 8 8 8 7 8 8 8 8 8 9 8 7 8 11 10 10 11 10 9 8 8
5 1 3 5 6 8 8 8 8 9 10 9 9 9 8 5 7 4 5 6 5 3 5 6 4 6 2 5 4 4 3 3 4 4 4 4 4 5 6 6 5 5 5 5 5 5 5 5 5 6 6 6 6 6 5 6 6 6 7 7 7 7 7 7 7 7 7 7 8 9 9 10 10 8 7 7 8 10 9 10 10 9 8 8 8
2 2 3 6 6 7 7 8 8 9 9 9 9 7 4 3 6 8 10 11 9 9 11 8 6 6 7 8 6 4 4 5 4 5 5 4 5 5 5 4 3 4 4 5 5 5 5 5 5 6 5 5 5 5 6 6 6 6 6 6 6 6 6 6 6 7 7 8 8 8 7 7 8 8 8 9 9 7 9 8 6 7 7 7 8
5 2 2 3 5 6 7 8 8 9 9 8 7 6 7 7 7 9 9 8 8 11 13 13 11 9 8 8 7 5 4 4 5 6 6 7 7 6 5 4 4 4 4 5 6 5 6 5 4 5 5 5 5 5 4 4 4 4 4 5 5 5 5 5 6 7 7 7 6 7 8 8 9 10 12 11 10 9 7 7 7 7 7 7 7
6 5 2 0 2 4 5 6 7 9 9 8 8 10 11 10 9 8 8 9 11 12 13 12 11 11 10 9 8 6 5 5 6 6 6 7 6 5 5 5 5 5 5 5 5 5 4 4 5 4 4 4 4 3 3 2 3 3 3 3 3 3 5 5 5 4 5 5 6 7 7 10 10 10 10 11 12 14 14 11 8 7 7 7 7
5 4 2 1 0 1 4 6 7 8 8 9 9 9 9 9 8 8 10 10 10 11 11 11 11 10 9 7 6 6 6 6 6 5 5 6 5 5 5 6 6 5 5 4 4 4 4 4 4 4 4 4 3 2 8 6 4 6 5 4 3 3 3 2 3 3 4 5 5 5 5 6 7 9 9 12 12 11 11 13 13 12 10 10 8
5 3 3 2 1 0 1 3 5 7 8 9 9 9 9 9 8 10 11 11 11 11 11 11 10 9 9 9 8 8 8 8 6 6 5 5 6 6 6 6 5 5 4 4 4 3 3 2 3 4 4 3 2 8 9 8 5 3 4 3 2 2 1 2 3 4 4 4 5 5 5 4 5 5 5 6 8 9 8 8 8 9 9 11 11
6 3 2 2 2 2 1 1 1 3 6 7 8 8 8 8 8 9 10 11 12 11 10 10 10 10 9 7 8 9 10 9 8 7 6 7 7 6 6 6 6 5 5 4 4 4 4 4 4 4 3 2 4 9 8 5 4 2 2 6 2 1 2 3 3 3 4 4 4 4 5 4 3 4 5 5 5 5 6 7 9 11 12 10 5
6 4 3 1 1 1 1 1 0 1 3 5 6 7 6 7 8 9 11 11 12 11 11 11 10 10 9 8 9 10 10 9 8 7 7 8 7 7 6 6 6 6 5 5 5 5 5 4 3 3 3 3 5 7 6 4 2 1 4 6 2 2 2 1 2 2 3 3 4 4 4 4 4 4 4 5 5 5 5 5 4 5 5 5 7
9 6 2 1 1 1 0 1 1 2 3 4 5 6 7 7 9 10 10 11 11 11 12 11 11 10 9 8 9 10 8 7 7 8 7 7 7 7 7 7 6 6 6 6 6 5 5 5 4 4 4 3 5 6 4 3 2 3 4 8 1 1 0 0 2 3 4 3 4 5 5 5 5 5 7 9 8 8 7 5 3 4 4 2 1
10 8 5 2 1 1 1 2 2 3 4 5 6 6 7 7 8 9 10 10 11 11 11 10 10 9 9 8 8 9 8 8 8 8 9 8 8 8 8 7 6 6 6 6 5 5 5 5 4 4 4 5 6 8 6 4 1 3 6 3 2 2 2 2 2 3 3 4 4 6 6 6 7 6 10 12 11 10 9 8 5 4 4 3 3
11 6 5 3 3 1 2 2 2 3 4 4 5 7 7 8 8 9 10 10 11 10 10 9 9 8 8 7 8 8 7 8 9 9 9 9 9 9 8 7 7 7 7 6 6 5 5 5 5 4 5 7 7 6 6 5 5 7 7 1 1 2 2 3 3 3 3 4 5 6 6 6 6 6 11 12 13 14 9 8 7 6 5 4 4
11 6 3 2 2 2 2 1 3 4 4 4 5 6 7 8 8 9 9 10 10 10 9 9 9 9 8 7 6 7 8 9 9 9 10 10 9 8 8 7 8 7 6 6 6 5 5 5 5 4 5 8 6 6 7 6 6 7 9 2 2 3 3 2 3 2 3 3 3 1 5 5 6 6 11 9 12 11 8 8 7 7 7 6 5
10 7 4 3 2 3 4 4 4 5 4 3 4 6 7 8 9 9 9 10 10 9 9 9 9 9 8 7 7 8 9 9 10 10 10 10 9 8 8 7 7 6 6 6 6 6 5 4 5 6 10 9 7 5 6 6 6 7 8 2 2 3 2 3 3 3 3 3 4 0 4 5 5 7 8 9 10 10 7 8 8 7 6 6 8
8 5 4 4 2 1 2 5 8 7 4 2 2 4 5 7 8 9 10 9 9 9 8 7 8 9 8 9 9 10 9 9 10 9 9 8 8 8 8 7 6 6 6 6 6 6 6 5 6 7 7 8 6 5 6 7 7 7 9 5 2 3 3 3 4 4 3 3 3 4 8 9 7 7 7 8 8 8 6 7 7 6 6 6 8
7 5 5 2 2 4 7 9 9 6 5 3 3 2 5 6 7 8 10 10 9 8 8 8 8 9 9 9 8 9 10 9 9 8 8 8 7 7 7 6 6 6 6 6 6 6 7 7 6 7 7 7 5 5 5 6 7 8 10 10 3 5 5 3 3 3 4 4 4 5 4 10 10 8 7 6 6 5 4 5 5 5 4 5 7
4 3 1 2 4 7 10 11 10 9 10 8 7 3 1 1 5 7 8 8 8 9 9 9 10 10 10 10 10 9 9 8 8 8 8 7 7 7 7 6 6 6 6 6 6 6 6 6 6 7 7 7 6 6 5 7 7 8 8 11 6 5 5 4 3 3 4 4 4 5 6 10 11 8 7 6 3 3 4 4 5 4 3 3 4
8 1 2 1 5 7 8 9 10 12 11 11 10 9 7 1 3 6 7 7 8 9 10 10 10 10 9 9 9 10 8 7 7 8 8 8 7 7 7 6 6 7 7 7 7 6 6 6 6 6 6 6 6 6 5 5 6 7 9 9 9 6 8 6 3 3 4 4 5 6 7 12 9 7 7 6 7 6 2 6 2 3 1 7 10
9 2 1 3 5 5 4 4 4 7 10 12 13 13 5 5 2 3 5 7 8 9 10 10 10 10 9 9 9 9 8 8 9 8 7 8 7 7 7 7 7 7 6 6 6 6 6 6 7 6 5 5 5 5 6 6 5 6 7 7 6 6 6 4 5 4 4 5 5 6 6 9 6 4 4 7 8 9 5 4 3 4 7 9 3
11 5 2 2 3 5 5 4 5 5 6 6 8 13 12 9 5 4 4 6 8 9 9 9 9 9 9 9 8 8 8 9 8 8 7 7 8 8 7 7 7 6 6 6 6 6 5 5 5 6 6 5 4 4 4 5 5 5 5 5 5 5 4 6 5 5 5 5 4 6 7 7 4 2 3 6 6 6 2 1 3 6 8 3 6
10 5 4 1 4 4 5 5 3 5 6 6 8 10 11 7 7 9 8 9 9 9 9 9 9 9 9 9 9 9 8 8 8 7 8 7 7 6 6 5 6 6 6 6 5 6 5 5 4 3 5 5 4 4 3 3 3 2 5 5 1 2 5 4 2 3 1 2 4 5 7 8 5 3 1 6 7 4 4 6 3 6 7 5 5
11 6 6 7 7 5 5 5 5 0 3 9 11 11 10 9 9 10 10 10 10 9 9 8 8 8 9 9 9 8 8 8 8 7 6 6 5 5 6 5 5 6 6 5 5 4 3 3 3 4 5 5 5 4 3 3 3 2 2 3 3 2 3 6 4 1 4 4 4 2 3 4 3 3 4 5 7 4 4 5 6 7 7 7 6
9 8 10 10 8 4 2 4 4 3 4 6 10 11 11 10 10 9 9 10 9 9 9 9 10 9 8 9 9 11 9 7 7 7 7 6 4 4 4 5 7 6 3 4 3 3 2 3 4 4 5 5 5 4 3 4 4 4 3 3 4 4 5 5 4 3 4 3 1 2 3 3 2 3 0 3 5 6 6 7 7 7 7 7 7
12 9 9 9 7 5 3 3 2 3 3 5 9 10 11 10 9 9 9 9 9 9 9 10 9 9 8 8 9 9 8 8 9 10 10 10 9 9 7 8 9 7 6 6 3 4 4 3 5 5 4 4 4 5 4 4 3 4 4 4 5 4 4 5 3 3 5 3 2 2 3 3 4 4 5 5 5 5 5 6 6 6 6 6 6
12 9 8 7 6 6 4 4 4 4 5 6 8 10 9 9 9 9 9 9 9 8 8 9 8 9 9 9 8 8 9 9 9 9 9 11 17 15 12 7 6 10 12 11 12 8 7 6 8 7 5 3 6 5 4 1 3 3 2 4 4 6 6 6 8 10 7 3 4 4 4 4 4 5 6 6 5 5 5 5 4 5 5 6 6
12 10 8 6 5 4 5 5 4 5 6 7 7 8 10 10 9 9 10 9 8 7 7 8 8 8 8 8 8 9 9 8 9 9 9 9 9 12 16 15 13 12 13 16 16 16 17 15 8 8 9 13 11 7 5 3 5 6 7 6 6 6 7 8 8 6 5 3 4 3 3 3 4 4 5 5 4 5 6 6 5 5 6 7 7
Wind_Direction
189 190 192 193 193 191 193 194 196 196 196 198 197 198 195 198 192 192 192 197 187 185 185 193 193 195 205 210 213 210 213 219 219 221 226 226 225 226 208 218 207 214 215 220 222 226 235 237 226 226 228 231 232 237 245 276 302 274 257 258 244 228 236 223 228 258 285 254 203 250 199 203 192 224 254 241 210 227 206 178 204 214 191 218 224
186 187 190 193 194 192 191 193 195 196 193 196 197 200 197 199 196 195 191 195 195 189 187 192 194 198 197 206 215 214 202 211 220 225 225 227 215 222 223 222 215 212 213 214 218 220 224 227 222 223 227 226 237 245 260 253 247 244 240 224 231 234 231 247 219 228 225 243 266 263 215 193 209 250 230 213 225 190 236 197 193 201 201 215 214
191 189 190 192 193 191 191 193 195 199 193 195 195 198 198 200 199 195 196 194 197 195 191 193 193 199 205 202 214 220 213 211 221 216 219 224 209 207 215 215 213 216 212 211 214 218 225 226 225 216 221 225 227 232 225 230 233 230 223 241 228 205 236 228 223 248 269 261 265 295 276 271 159 229 224 243 265 245 196 202 186 161 213 220 202
195 192 190 191 190 191 191 192 194 196 195 194 194 195 195 197 194 194 196 196 197 196 196 195 194 193 204 215 209 230 227 214 223 230 229 227 224 205 201 209 213 219 211 213 216 217 221 224 227 228 212 222 234 240 243 235 219 230 227 213 242 250 203 224 210 210 264 270 250 254 297 270 286 187 235 199 229 216 247 234 203 195 185 208 200
197 194 192 190 190 191 191 191 191 194 195 193 195 191 194 192 193 191 191 194 195 191 190 193 185 187 194 205 216 221 241 238 223 222 218 216 228 215 210 202 205 220 215 215 219 213 218 221 231 230 222 215 226 227 231 232 221 221 219 233 217 237 238 228 201 226 227 248 292 279 258 259 253 283 297 281 244 253 194 250 138 311 233 202 224
200 198 194 191 190 189 188 191 193 192 195 194 194 192 193 191 187 187 189 191 193 187 188 190 188 192 192 197 205 210 215 215 219 221 214 210 214 213 207 197 198 210 213 218 217 217 211 218 221 230 220 213 226 242 242 243 233 246 205 219 216 227 263 250 232 209 265 195 236 266 280 284 312 311 314 276 231 262 289 248 243 225 262 232 228
198 204 197 194 189 190 189 193 194 195 193 195 193 194 192 191 185 184 187 189 191 186 186 192 195 199 199 203 205 208 212 218 225 222 223 203 213 202 195 189 196 209 209 213 214 213 217 214 215 224 231 227 217 227 232 239 234 223 229 211 239 236 218 255 253 249 214 234 238 244 263 270 280 284 284 307 287 287 267 288 252 208 248 251 235
196 200 200 200 193 193 193 193 196 197 195 194 195 194 190 191 185 183 185 187 189 181 185 192 195 198 201 209 208 212 214 217 211 218 219 219 201 206 192 192 186 205 219 208 214 207 213 211 209 221 230 233 227 227 236 240 248 258 209 274 274 264 243 244 250 249 251 226 252 270 255 252 257 275 274 279 292 284 281 262 257 245 247 265 249
200 195 203 205 196 197 196 196 196 198 196 195 194 194 189 189 188 183 184 184 186 183 185 190 195 195 200 205 213 216 222 216 206 213 220 197 215 203 214 211 176 195 212 218 206 217 208 219 213 220 221 229 229 235 238 241 243 245 239 232 228 240 241 242 250 262 267 268 248 224 257 274 274 263 268 272 274 283 286 283 280 270 251 255 265
204 196 197 199 195 201 206 199 197 198 197 194 193 192 190 185 185 183 184 184 185 184 186 188 192 194 201 210 212 214 214 220 217 202 209 205 208 210 202 218 230 198 195 207 210 214 215 213 220 218 223 227 231 237 239 241 245 245 241 244 243 243 249 249 245 251 256 265 271 276 253 263 279 283 275 271 265 268 273 276 285 296 288 278 270
206 190 194 197 195 208 214 202 198 196 196 193 193 192 190 185 181 185 186 186 184 185 187 189 194 199 205 209 213 217 216 216 212 208 206 206 217 215 205 208 224 236 224 179 202 207 210 214 228 222 226 224 228 237 236 240 237 236 238 236 245 253 249 255 259 262 268 269 269 268 269 258 253 253 258 268 281 282 286 284 280 275 290 297 289
189 210 189 176 188 197 211 213 196 195 194 194 194 191 190 186 181 185 187 186 185 186 189 190 194 200 207 207 213 217 218 218 213 214 211 211 213 217 228 217 220 224 218 229 211 209 202 214 220 234 228 233 229 234 244 244 249 252 255 252 243 240 253 264 267 265 261 258 257 264 269 268 266 270 270 262 260 262 266 276 283 291 285 282 292
192 186 193 187 189 199 204 201 194 192 194 194 196 191 189 189 184 185 187 187 187 186 188 192 195 200 204 207 211 216 218 220 223 219 215 214 219 216 203 215 214 227 237 228 213 219 214 207 229 226 222 224 241 250 246 252 267 274 272 271 268 267 261 256 255 254 258 264 271 268 264 266 269 274 279 280 278 284 278 279 278 286 286 287 289
195 190 193 184 184 191 197 201 193 194 192 194 193 193 188 190 187 187 188 185 184 186 188 191 197 202 202 205 207 207 213 217 217 222 214 217 213 229 220 205 205 218 220 217 236 229 222 206 206 224 229 229 223 228 240 248 253 256 257 257 260 258 263 259 258 263 265 267 268 271 272 277 279 277 280 279 277 277 277 275 278 274 279 283 285
200 195 195 182 189 188 189 190 190 187 198 192 191 192 189 190 188 189 188 183 180 183 186 193 198 202 203 206 207 207 210 210 215 219 222 213 215 209 220 236 220 209 216 218 220 240 245 237 213 223 212 215 220 227 235 233 231 240 249 257 266 261 264 280 267 264 262 260 263 266 269 268 273 277 274 273 273 272 274 279 281 282 278 279 282
203 195 193 190 186 187 188 181 180 198 194 191 190 187 190 192 190 189 184 178 179 182 188 193 198 199 201 204 206 209 211 214 208 211 217 229 218 227 205 219 244 237 220 218 214 220 230 234 219 221 221 211 214 224 235 242 226 232 240 242 244 245 234 232 251 257 261 268 272 277 273 271 270 270 272 275 275 273 274 277 277 280 287 281 276
206 197 191 187 185 187 187 183 186 188 188 190 189 187 189 189 188 183 181 178 183 186 190 193 195 198 200 203 204 201 203 210 210 203 215 212 224 222 224 217 215 226 232 218 224 215 228 230 239 244 209 209 224 228 235 239 251 250 246 254 254 259 285 290 288 278 277 280 272 269 270 274 278 283 271 263 270 277 283 285 297 311 316 314 303
203 201 188 187 183 183 183 185 188 189 189 185 184 188 184 188 182 177 178 182 185 187 190 192 194 199 200 203 205 209 208 212 215 216 210 211 204 215 228 220 226 223 220 236 231 222 218 218 241 235 243 230 223 210 106 108 123 252 297 290 283 336 296 278 275 277 274 264 278 282 279 273 264 256 275 306 299 297 318 327 28 327 12 293 280
200 198 182 185 180 182 183 190 189 187 189 187 183 185 181 185 182 177 179 183 183 183 188 193 193 199 201 206 206 206 211 211 213 215 222 217 216 210 215 226 231 226 227 227 240 240 231 223 214 233 214 220 187 178 166 147 155 189 219 251 252 248 249 250 254 252 257 259 259 260 260 268 274 280 283 273 279 281 296 335 353 37 251 227 239
192 201 189 183 181 184 185 187 186 183 185 185 179 179 180 181 179 179 176 172 173 177 180 188 191 198 199 201 203 204 204 206 200 207 211 216 216 218 222 224 222 229 226 222 233 240 247 245 230 217 227 181 186 182 176 174 191 219 228 240 237 230 239 248 258 263 262 261 258 252 253 258 266 271 270 267 265 273 284 290 292 306 275 266 260
191 202 196 188 183 186 179 179 177 167 165 175 177 189 189 183 181 174 171 170 174 172 173 185 188 194 200 200 200 196 199 197 201 203 217 219 221 223 225 227 225 225 223 224 225 234 238 239 246 259 235 189 194 198 193 185 202 220 237 246 257 245 249 255 258 264 267 264 257 258 261 266 274 274 276 276 275 272 272 262 262 262 267 272 263
191 212 198 198 187 188 179 176 167 155 154 151 180 195 200 187 181 172 167 169 162 167 186 185 187 188 193 195 201 195 196 200 202 199 214 219 219 218 222 226 227 220 229 230 234 236 231 235 244 236 236 213 199 187 192 194 208 213 223 232 237 236 245 254 259 263 259 259 265 263 263 263 258 260 263 269 273 270 258 254 243 243 250 245 233
311 210 196 200 187 187 172 166 160 159 148 151 180 195 205 193 184 178 177 181 186 185 184 179 180 182 188 190 195 197 189 195 206 203 215 213 214 220 216 219 218 225 216 230 237 239 247 260 259 245 225 227 222 210 204 205 213 222 233 238 240 240 241 247 251 254 256 258 261 263 267 268 264 262 260 263 265 263 261 253 245 241 247 248 250
341 141 185 194 181 185 162 167 166 165 167 167 169 188 202 203 192 179 192 197 183 178 176 173 175 178 180 183 189 191 190 191 205 211 216 218 220 215 219 222 227 228 233 228 244 253 255 234 231 239 234 228 223 217 212 208 214 220 229 235 236 238 246 253 258 263 265 264 265 269 272 271 267 263 263 261 257 263 264 260 250 244 246 250 249
15 131 173 175 186 170 160 169 172 173 173 164 162 160 201 213 186 146 171 205 188 177 170 167 174 175 177 183 188 193 194 198 208 213 216 217 223 232 221 227 228 236 224 233 242 246 239 234 240 239 240 239 232 220 214 214 218 222 228 239 241 242 246 246 247 250 252 258 263 264 264 261 257 260 255 253 256 254 249 254 257 251 245 245 244
351 167 191 182 182 171 174 178 175 175 179 177 165 178 191 209 207 181 186 178 171 169 162 122 127 120 159 214 212 211 205 203 213 219 212 213 219 222 220 227 227 230 232 234 238 246 247 245 244 243 243 244 241 233 226 227 227 227 226 236 242 244 247 250 253 254 254 255 261 263 262 255 250 250 255 254 257 258 257 256 258 258 259 260 258
341 284 188 183 185 191 188 188 185 177 179 185 183 188 190 160 153 174 107 97 92 77 70 59 64 76 73 262 237 217 227 203 199 213 204 193 190 202 219 223 218 229 234 237 243 244 242 249 245 251 253 251 246 243 234 223 221 222 226 230 235 238 245 248 250 252 251 254 253 253 254 256 257 256 258 262 262 262 263 261 268 274 272 269 266
290 275 196 185 189 191 191 192 195 189 185 188 191 192 167 128 131 145 155 159 165 150 110 111 150 155 212 239 246 239 197 187 194 205 201 203 209 214 216 212 205 221 228 244 237 238 247 246 246 246 252 257 252 248 243 234 224 225 229 232 235 240 242 246 255 256 254 252 254 257 260 263 259 255 255 262 264 268 271 268 265 269 276 273 268
325 276 213 181 172 179 182 187 191 194 192 185 175 163 154 148 157 160 155 156 152 139 139 157 167 164 187 210 220 225 208 189 195 196 205 205 206 201 198 194 207 214 228 225 234 240 244 242 244 261 255 246 248 245 238 235 229 223 234 240 242 247 251 250 249 250 251 253 255 256 257 253 252 258 263 271 283 291 286 275 261 258 262 267 264
322 311 313 208 171 175 180 174 185 187 181 176 171 174 177 181 185 164 139 143 156 149 151 158 162 178 196 198 186 195 192 195 203 203 205 203 201 196 194 198 202 210 221 229 229 233 238 245 244 234 242 242 239 246 231 252 318 305 242 253 248 244 242 242 251 264 265 255 250 252 252 257 265 274 284 281 271 262 261 266 280 279 273 266 270
320 305 301 321 181 206 190 197 197 194 184 182 184 182 185 183 174 148 143 152 162 166 165 167 175 188 187 184 175 181 200 210 209 212 207 200 195 193 203 201 204 202 209 214 219 219 221 232 240 234 224 227 224 87 81 65 33 336 293 248 243 244 250 262 264 260 274 274 271 263 264 265 258 256 254 250 257 264 266 265 263 266 264 271 279
319 316 316 339 4 36 227 218 207 200 192 188 185 185 183 187 164 149 149 156 162 168 170 173 178 190 186 178 170 176 194 200 204 199 192 184 185 190 190 193 196 194 196 182 188 218 221 229 219 217 221 201 141 83 74 76 69 33 332 290 241 267 287 288 272 280 283 287 289 284 279 272 265 279 296 284 259 247 256 273 283 280 273 263 262
326 323 335 6 1 351 331 296 252 202 198 192 182 178 183 176 160 149 149 160 166 175 174 184 189 195 194 178 174 193 197 196 195 194 184 179 178 185 193 191 179 174 162 177 178 171 164 177 186 190 171 149 110 89 88 84 70 35 326 284 221 219 253 238 258 271 282 291 294 292 295 291 289 272 267 275 290 287 265 262 264 273 272 269 247
331 333 342 17 350 326 329 333 42 213 196 190 184 181 175 169 157 156 165 167 171 179 189 189 194 200 198 188 190 197 197 193 188 186 183 175 178 183 175 168 156 157 167 157 152 155 142 150 145 138 126 133 102 92 105 108 101 352 288 279 247 200 248 296 300 295 300 299 293 294 295 296 304 294 301 309 304 293 290 281 281 275 268 249 243
332 339 333 352 4 354 12 154 137 151 156 167 173 165 158 159 165 165 168 170 180 183 192 194 192 193 191 190 191 192 186 175 174 179 172 174 171 165 167 157 157 163 160 151 151 149 142 147 147 143 145 130 94 88 72 52 47 298 272 263 257 259 113 330 323 333 324 326 323 323 320 321 330 346 30 8 343 322 301 293 286 286 277 279 278
330 327 321 303 7 26 106 107 110 143 148 161 165 167 171 162 155 157 166 175 180 189 192 191 190 187 189 188 188 186 173 172 171 167 166 166 164 164 156 150 154 151 146 144 142 143 144 141 141 143 148 112 77 44 49 43 338 266 271 260 48 30 22 19 14 4 351 348 338 345 342 340 343 350 32 15 355 329 312 308 310 300 304 299 261
322 322 307 326 324 22 81 107 129 127 137 140 148 162 163 160 164 165 169 172 177 185 181 176 176 174 184 186 181 174 156 160 157 158 163 161 157 152 148 153 149 148 147 145 147 148 146 149 152 162 143 107 84 47 39 32 3 332 295 85 13 55 43 44 29 9 350 347 358 355 339 334 337 22 33 10 351 334 314 322 331 335 329 312 313
323 321 290 284 323 48 70 103 108 107 100 117 148 144 148 154 154 158 164 169 176 180 174 170 168 169 180 174 161 152 155 150 156 159 157 154 150 150 147 153 148 149 149 145 142 144 149 155 162 137 111 104 94 56 40 25 353 330 311 78 114 93 77 29 45 18 359 343 14 87 352 349 352 16 22 10 356 338 328 332 338 338 336 336 328
323 322 346 356 4 353 78 76 76 67 72 103 136 147 150 150 152 155 160 165 175 173 171 169 163 166 168 152 152 160 156 157 155 154 151 149 149 146 142 148 145 147 140 142 148 143 149 149 126 111 107 107 102 79 49 16 351 330 309 119 64 82 45 30 3 3 353 337 339 143 121 50 33 23 18 13 6 350 327 325 325 325 320 334 3
311 328 25 37 29 25 75 63 56 49 51 73 145 141 132 147 150 152 158 160 164 167 168 160 145 149 153 159 158 158 152 149 148 147 146 142 140 141 145 147 149 147 144 143 146 141 142 128 127 129 119 110 110 95 54 11 358 339 337 332 82 24 33 23 5 349 324 349 5 342 111 72 47 34 17 16 4 4 334 327 326 324 323 353 350
316 2 8 50 79 42 64 69 70 57 54 30 11 85 142 147 154 153 148 148 150 153 148 137 150 152 151 147 147 150 149 147 145 144 138 138 142 141 144 145 143 138 131 134 138 140 137 129 125 120 118 112 107 111 71 26 20 5 360 344 51 26 10 5 346 345 334 9 359 360 16 64 24 15 15 16 10 341 337 304 325 353 15 342 322
341 46 333 71 102 99 90 88 85 69 54 32 357 347 27 175 143 129 124 129 141 145 148 149 151 148 144 145 146 144 144 142 140 138 142 141 140 140 140 137 130 123 130 131 130 130 126 124 126 115 103 104 88 86 102 61 30 23 15 12 23 53 5 340 359 356 349 23 4 10 15 20 9 12 22 25 11 356 302 288 51 58 50 331 306
311 43 112 84 126 120 124 134 134 129 122 114 95 6 333 302 122 113 127 141 150 148 149 149 145 141 143 141 142 142 143 140 142 146 143 141 136 134 128 127 128 132 130 129 133 135 136 136 131 119 114 122 121 101 76 94 63 32 27 35 23 24 336 309 3 8 16 7 19 15 30 13 5 19 37 42 30 352 303 42 356 25 327 264 258
301 326 91 119 129 128 136 165 162 146 133 129 124 125 130 305 36 105 135 142 152 152 149 148 147 146 143 141 143 147 145 142 143 144 139 131 127 129 133 136 138 135 133 139 144 149 151 147 139 130 125 128 121 112 89 72 70 62 50 43 41 31 10 5 318 15 5 20 15 34 10 341 354 30 88 71 63 51 48 359 314 269 253 250 306
297 332 2 191 171 153 127 77 41 46 80 99 118 124 137 157 170 121 152 156 159 158 155 152 144 140 141 142 144 141 137 137 139 139 137 135 138 142 139 140 140 143 148 152 158 155 146 139 137 136 133 127 118 118 113 112 128 111 76 45 22 8 31 340 325 41 22 31 10 312 301 310 317 246 170 172 111 91 143 204 265 260 260 331 358
300 321 348 272 209 191 144 125 95 112 132 130 118 117 137 166 161 153 173 162 167 161 154 146 143 143 140 136 137 132 131 133 134 140 142 142 143 143 134 144 148 147 149 144 148 141 151 131 122 116 111 108 110 104 98 90 96 150 152 153 154 33 26 9 353 54 333 261 284 276 267 255 208 198 118 47 39 47 193 198 145 42 41 33 17
297 298 285 254 240 221 164 147 148 137 161 137 136 142 152 158 158 164 164 163 158 154 149 146 143 142 137 136 133 135 135 136 141 142 139 135 129 129 140 157 152 151 146 141 138 136 140 131 111 106 96 99 99 77 54 51 26 351 39 150 164 141 199 232 212 187 214 206 189 244 49 349 23 67 108 98 57 34 42 35 31 29 30 29 23
289 278 264 264 266 268 174 151 170 144 257 152 138 139 142 152 159 158 156 157 154 155 152 154 148 139 139 139 135 131 130 100 62 46 53 58 65 99 97 52 25 11 31 128 121 97 107 110 117 108 106 109 108 93 68 44 26 356 7 38 63 49 44 41 22 21 343 354 29 179 202 226 158 197 155 45 56 55 52 39 31 28 33 30 19
280 263 256 260 274 281 245 184 207 164 214 169 142 138 147 154 157 151 154 160 156 159 160 150 143 142 138 139 139 143 129 111 92 72 58 42 19 5 29 59 40 25 12 7 9 95 75 71 84 84 104 123 100 87 73 29 11 345 332 19 53 40 33 54 56 323 303 348 11 24 22 21 21 19 21 34 39 40 51 47 31 16 24 23 21
281 272 270 268 269 278 265 219 220 187 201 194 160 148 149 152 150 152 159 158 159 161 154 153 151 151 150 153 146 132 121 120 111 104 96 75 55 48 29 32 51 32 38 33 41 49 25 64 81 53 22 37 88 85 89 22 285 274 316 354 349 339 326 333 339 321 289 335 12 18 17 19 26 32 43 37 30 26 24 19 29 26 17 22 13
287 285 265 255 267 262 261 236 219 206 205 201 186 164 155 149 151 155 162 158 166 163 162 156 157 159 150 147 142 133 128 117 115 112 106 104 85 56 45 41 46 47 42 43 46 41 35 24 59 102 62 54 75 87 78 41 27 14 8 354 346 334 335 319 317 326 303 15 20 34 41 38 34 35 43 41 29 31 20 14 14 19 23 16 13